This demonstration page uses our WeatherBlox Daily Observations layout. Learn more.

Left ArrowRight Arrow

Hourly Observations for March 21, 2015

Temp ( °F °C ) Dew Point ( °F °C ) Humidity (%) Winds ( mph kmh ) Pressure ( in mb ) Visibility ( mi km ) Precip ( " mm )
12:53 am 00:53 Partly Cloudy 42 5.6 37 2.8 82 82 ENE 15 24 29.94 1014 10 16 N/A
1:53 am 01:53 Mostly Clear 40 4.4 36 2.2 86 86 ENE 14 22 29.93 1013 10 16 N/A
2:53 am 02:53 Clear 38 3.3 35 1.7 89 89 ENE 14 22 29.93 1014 10 16 N/A
3:53 am 03:53 Clear 36 2.2 34 1.1 93 93 ENE 10 17 29.92 1013 10 16 N/A
4:53 am 04:53 Clear 33 0.6 32 undefined 96 96 E 6 9 29.93 1014 8 13 N/A
5:53 am 05:53 Mostly Clear with Mist and Fog 33 0.6 32 undefined 96 96 E 8 13 29.93 1014 4 6 N/A
6:05 am 06:05 Mostly Cloudy with Mist and Fog 33 0.6 33 0.6 100 100 E 9 15 30.00 1016 3 4 N/A
6:19 am 06:19 Cloudy with Mist and Fog 33 0.6 33 0.6 100 100 E 8 13 30.00 1016 1 2 N/A
6:28 am 06:28 Mostly Cloudy with Fog 34 1 34 1 100 100 E 9 15 30.00 1016 1 1 N/A
6:36 am 06:36 Mostly Cloudy with Fog 34 1 34 1 100 100 E 9 15 30.00 1016 0 0 N/A
6:53 am 06:53 Mostly Cloudy with Fog 33 0.6 33 0.6 100 100 ENE 8 13 29.94 1014 0 0 N/A
7:53 am 07:53 Mostly Cloudy with Fog 33 0.6 33 0.6 100 100 ENE 7 11 29.94 1014 5 8 N/A
8:53 am 08:53 Mostly Cloudy with Fog 34 1.1 34 1.1 100 100 E 6 9 29.95 1014 5 8 N/A
9:53 am 09:53 Mostly Cloudy with Fog 35 1.7 35 1.7 100 100 E 8 13 29.94 1014 0 0 N/A
10:13 am 10:13 Mostly Cloudy with Fog 36 2.2 36 2.2 100 100 E 7 11 30.00 1016 1 1 N/A
10:25 am 10:25 Cloudy with Mist and Fog 37 2.8 37 2.8 100 100 E 8 13 29.94 1014 2 2 N/A
10:29 am 10:29 Cloudy with Mist and Fog 37 2.8 36 2.2 96 96 E 9 15 29.94 1014 3 5 N/A
10:53 am 10:53 Cloudy 39 3.9 37 2.8 93 93 E 10 17 29.93 1013 10 16 N/A
11:01 am 11:01 Mostly Cloudy 40 4.4 37 2.8 89 89 ENE 10 17 29.94 1014 10 16 N/A
11:53 am 11:53 Mostly Sunny 46 7.8 37 2.8 71 71 ENE 10 17 29.90 1013 10 16 N/A
12:53 pm 12:53 Mostly Cloudy 51 10.6 38 3.3 61 61 ENE 9 15 29.88 1012 10 16 N/A
1:53 pm 13:53 Mostly Cloudy 56 13.3 38 3.3 51 51 NE 9 15 29.85 1011 10 16 N/A
2:53 pm 14:53 Partly Cloudy 57 13.9 39 3.9 51 51 ENE 8 13 29.84 1011 10 16 N/A
3:53 pm 15:53 Mostly Sunny 58 14.4 40 4.4 51 51 NE 9 15 29.84 1010 10 16 N/A
4:53 pm 16:53 Cloudy 56 13.3 41 5 57 57 ENE 7 11 29.84 1010 10 16 N/A
5:53 pm 17:53 Sunny 59 15 39 3.9 48 48 WNW 16 26 29.85 1011 10 16 N/A
6:53 pm 18:53 Sunny 57 13.9 31 -0.6 37 37 W 20 31 29.88 1012 10 16 N/A
7:53 pm 19:53 Clear 50 10 32 undefined 50 50 W 10 17 29.90 1012 10 16 N/A
8:53 pm 20:53 Clear 49 9.4 28 -2.2 44 44 W 14 22 29.92 1013 10 16 N/A
9:53 pm 21:53 Clear 44 6.7 28 -2.2 53 53 SW 12 19 29.96 1014 10 16 N/A
10:53 pm 22:53 Clear 43 6.1 28 -2.2 56 56 WSW 13 20 29.97 1015 10 16 N/A
11:53 pm 23:53 Clear 39 3.9 28 -2.2 65 65 SW 13 20 29.97 1015 10 16 N/A

Powered by AerisWeather